Location: downtown San Diego
(32.7310°N, 117.1990°W)
Time: 01:08:33
(UTC-07:00)

GPS 2-05 Rocket1 - Pass Details

Date: 12 July 2018
Orbit: 349 x 401 km, 35.6° (Epoch: 22 September)

Event Time Altitude Azimuth Distance (km) Brightness Sun altitude
Rises 21:45:02 0° 255° (WSW) 2,175 6.8 -19.1°
Reaches altitude 10° 21:47:04 10° 257° (WSW) 1,341 5.7 -19.4°
Enters shadow 21:49:44 66° 271° (W) 404 2.7 -19.8°
